User: anonymous   Login
Location: Banios
(43.0451°N, 0.2335°E)
Time: 16:10:12
(UTC+00:00)
Language:

Cosmos 1315 Rocket - Orbit

View from above orbital plane
View from above orbital plane
View from above satellite
View from above satellite

Ground track
Ground track

The orbit data is extracted from the following two-line orbital elements,

1 12904U 81103B   21107.96324102  .00000930  00000-0  61665-4 0  9997
2 12904  81.1742 114.8822 0028820 131.9315 228.4372 15.05982192703381
Epoch (UTC): 17 April 2021 23:07:04
Eccentricity: 0.0028820
inclination: 81.1742°
perigee height: 528 km
apogee height: 568 km
right ascension of ascending node: 114.8822°
argument of perigee: 131.9315°
revolutions per day: 15.05982192
mean anomaly at epoch: 228.4372°
orbit number at epoch: 70338

The dashed part of the orbit path shows where the satellite is in the earth's shadow,  

DLR